CZ-6A DEB, 60680

Orbit data source: Space-Track

CZ-6A DEB, 60680 is space debris in LEO originally from a launch on Tue, 06 Aug 2024 UTC launched from the Taiyaun Space Center, China (TSC). Debris objects in space refer to the collection of defunct objects orbiting the Earth. Examples of debris include non-operational satellites, rocket bodies, and fragments generated from explosions, collisions, or faulty payload assembly.

Loading next visibility...
Identifier
60680, 2024-140CH
Orbit
LEO
Country
Flag of CNCN / PRC
Related business
Manufacturer
SAST
Mission
Spacecraft
Bus & Motor
Unknown
Mass
Unknown
Launch date (UTC)
2024-08-06 (2 years ago)
Launch vehicle
Unknown
Launch site
Taiyaun Space Center, China (TSC)
Object type
Payload
Rocket body
Debris
Shape & HBR
Unknown shape, 0.2 m
Radar Cross Section
Medium (>0.1 m² and <1 m²)

Expand to show TLE details & history
Last TLE update: 14 hours ago

TLE from 14 hours ago
0 CZ-6A DEB
1 60680U 24140CH  26171.27830010  .00000548  00000-0  17008-3 0  9995
2 60680  88.9718 269.9518 0126058 220.3817 138.7972 14.35275244 97525
Epoch: 2026-06-20T06:40Z
TLE epoch observation values (Epoch: 2026-06-20T06:40:45.128Z)
Latitude
-0.0001°
Longitude
-98.73145°
Altitude
845.563 km
Speed
7.394 km/s
True Right ascension
17h 59m 48s
True Declination
0° 00' 00"
Sunlit
Object was in full shadow at epoch
Visualization orbit readout
Latitude
Unknown
Longitude
Unknown
Altitude
Unknown
Speed
Unknown
Apparent Right ascension
Unknown
Apparent Declination
Unknown
Sunlit
N/A
Visualization observer readout
Local Sidereal Time
07:20:15
Azimuth
Unknown
Elevation
Unknown
Doppler factor
Unknown
Orbital elements
Apogee altitude
861.202 km
Perigee altitude
680.959 km
Semi-major axis
7,149.218 km
Eccentricity
0.01261
Inclination
88.9718°
RAAN
269.9518°
Arg. of periapsis
220.3817°
True anomaly
139.73755°
Mean anomaly
138.7972°
Eccentric anomaly
139.26849°
Mean motion
3.5905 °/min
Orbital period
100.26 mins
BSTAR
0.00017008
Loading maneuver chart data...
Computing Atmospheric mass density...
Loading historical data...
Loading historical data...
Loading historical data...
Loading historical data...
Loading historical data...
Loading historical data...
Loading historical data...

Documentation

Showing up to 5 results
|